Wind from 208 at 1 knots gusting 5

Air temperature 10.0° C
Dewpoint 9.2° C

Last reported at 2014-Apr-21 03:50 UTC.
Time now 2014-Apr-21 04:55 UTC

Location: N 40°27' W 003°35'.
View on Google Maps.

See reports from other nearby stations

Tides Stations Pressure Air Temp Water Temp Dewpoint Dewpoint depression Visibility Wind Speed Wind Dir Waves Ship positions

  
sailing weather and tide predictions

DW8501 Madrid ES weather

date/time (UTC)wind fromknots sea level pressurealtimeterstation pressurevisibilityair tempwater tempwave heightnotes
2014-Apr-21 03:50 208 1 gusting 5 10.0
2014-Apr-21 03:45 210 1 gusting 3 10.0
2014-Apr-21 03:40 225 1 gusting 3 10.0
2014-Apr-21 03:35 10.0
2014-Apr-21 03:30 175 0 gusting 5 10.0
2014-Apr-21 03:25 164 0 gusting 5 10.6
2014-Apr-21 03:20 172 2 gusting 5 10.6
2014-Apr-21 03:15 186 0 gusting 6 10.6
2014-Apr-21 03:10 184 2 gusting 6 10.6
2014-Apr-21 03:05 10.6
2014-Apr-21 03:00 192 3 gusting 6 10.6
2014-Apr-21 02:55 10.6
2014-Apr-21 02:50 161 1 gusting 3 10.0
2014-Apr-21 02:45 199 0 gusting 3 10.0
2014-Apr-21 02:40 10.0
2014-Apr-21 02:35 10.0
2014-Apr-21 02:30 10.0
2014-Apr-21 02:25 10.0
2014-Apr-21 02:20 10.0
2014-Apr-21 02:15 215 1 gusting 3 10.0
2014-Apr-21 02:10 10.0
2014-Apr-21 02:05 10.0
2014-Apr-21 02:00 208 2 gusting 4 10.0
2014-Apr-21 01:55 189 0 gusting 3 10.0
2014-Apr-21 01:50 182 2 gusting 3 10.6
2014-Apr-21 01:45 10.6
2014-Apr-21 01:40 167 1 gusting 4 10.6
2014-Apr-21 01:35 158 2 gusting 4 10.6
2014-Apr-21 01:30 10.6
2014-Apr-21 01:25 10.6
2014-Apr-21 01:20 166 1 gusting 2 10.6
2014-Apr-21 01:15 160 1 gusting 2 10.6
2014-Apr-21 01:10 10.6
2014-Apr-21 01:05 204 0 gusting 2 10.6
2014-Apr-21 01:00 211 1 gusting 2 10.6
2014-Apr-21 00:55 224 0 gusting 2 10.6
2014-Apr-21 00:50 205 0 gusting 2 10.6
2014-Apr-21 00:45 173 1 gusting 2 10.6
2014-Apr-21 00:40 10.6
2014-Apr-21 00:35 190 0 gusting 3 10.6
2014-Apr-21 00:30 191 0 gusting 4 10.6
2014-Apr-21 00:25 184 0 gusting 4 10.6
2014-Apr-21 00:20 178 1 gusting 3 10.6
2014-Apr-21 00:15 187 1 gusting 3 10.6
2014-Apr-21 00:10 190 1 gusting 4 10.6
2014-Apr-21 00:05 190 2 gusting 4 10.6
2014-Apr-21 00:00 197 3 gusting 6 10.6
2014-Apr-20 23:55 214 1 gusting 6 10.6
2014-Apr-20 23:50 219 2 gusting 6 10.0
2014-Apr-20 23:45 217 3 gusting 6 10.0
2014-Apr-20 23:40 212 4 gusting 6 10.6
2014-Apr-20 23:35 217 3 gusting 9 10.6
2014-Apr-20 23:30 219 3 gusting 11 10.6
2014-Apr-20 23:25 216 6 gusting 11 10.6
2014-Apr-20 23:20 221 5 gusting 7 10.6
2014-Apr-20 23:15 219 6 gusting 7 10.6
2014-Apr-20 23:10 198 3 gusting 6 10.0
2014-Apr-20 23:05 196 2 gusting 4 10.0
2014-Apr-20 23:00 225 2 gusting 3 10.0
2014-Apr-20 22:55 10.0
2014-Apr-20 22:50 217 1 gusting 9 10.0
2014-Apr-20 22:45 216 2 gusting 9 10.0
2014-Apr-20 22:40 209 5 gusting 9 10.0
2014-Apr-20 22:35 209 3 gusting 10 10.0
2014-Apr-20 22:30 219 6 gusting 13 10.0
2014-Apr-20 22:25 231 6 gusting 13 10.6
2014-Apr-20 22:20 232 7 gusting 11 10.6
2014-Apr-20 22:15 244 7 gusting 13 10.6
2014-Apr-20 22:10 251 9 gusting 13 10.6
2014-Apr-20 22:05 243 10 gusting 13 11.1
2014-Apr-20 22:00 240 6 gusting 13 11.1
2014-Apr-20 21:55 235 9 gusting 13 11.1
2014-Apr-20 21:50 237 11 gusting 13 11.7
2014-Apr-20 21:45 244 7 gusting 13 11.7
2014-Apr-20 21:40 235 11 gusting 13 11.7
2014-Apr-20 21:35 240 9 gusting 14 11.7
2014-Apr-20 21:30 238 11 gusting 14 11.7
2014-Apr-20 21:25 234 13 gusting 19 11.7
2014-Apr-20 21:20 238 14 gusting 19 11.7
2014-Apr-20 21:15 255 13 gusting 15 11.7
2014-Apr-20 21:10 253 7 gusting 18 11.7
2014-Apr-20 21:05 236 12 gusting 18 12.2
2014-Apr-20 21:00 231 13 gusting 18 12.2
2014-Apr-20 20:55 241 13 gusting 19 12.2
2014-Apr-20 20:50 234 14 gusting 19 12.2
2014-Apr-20 20:45 224 12 gusting 19 12.2
2014-Apr-20 20:40 236 15 gusting 21 12.2
2014-Apr-20 20:35 238 14 gusting 23 12.2
2014-Apr-20 20:30 232 16 gusting 24 12.2
2014-Apr-20 20:25 234 15 gusting 24 13.3
2014-Apr-20 20:20 232 15 gusting 23 13.3
2014-Apr-20 20:15 225 15 gusting 23 13.3
2014-Apr-20 20:10 225 13 gusting 20 13.9
2014-Apr-20 20:05 231 6 gusting 13 14.4
2014-Apr-20 20:00 270 6 gusting 13 14.4
2014-Apr-20 19:55 301 9 gusting 16 14.4
2014-Apr-20 19:50 300 10 gusting 19 14.4
2014-Apr-20 19:45 286 13 gusting 19 14.4
2014-Apr-20 19:40 266 13 gusting 19 14.4
2014-Apr-20 19:35 255 13 gusting 19 14.4
2014-Apr-20 19:30 251 9 gusting 17 14.4
2014-Apr-20 19:25 264 8 gusting 18 15.0
2014-Apr-20 19:20 280 11 gusting 18 15.0
2014-Apr-20 19:15 274 12 gusting 15 15.0
2014-Apr-20 19:10 262 12 gusting 15 15.0
2014-Apr-20 19:05 258 13 gusting 15 15.0
2014-Apr-20 19:00 258 10 gusting 14 15.0
2014-Apr-20 18:55 255 9 gusting 18 15.0
2014-Apr-20 18:50 259 11 gusting 18 15.0
2014-Apr-20 18:45 261 9 gusting 18 15.0
2014-Apr-20 18:40 262 13 gusting 15 15.6
2014-Apr-20 18:35 260 9 gusting 18 15.6
2014-Apr-20 18:30 249 13 gusting 18 15.6
2014-Apr-20 18:25 254 13 gusting 22 15.6
2014-Apr-20 18:20 262 13 gusting 22 15.6
2014-Apr-20 18:15 251 15 gusting 22 15.6
2014-Apr-20 18:10 246 10 gusting 19 15.6
2014-Apr-20 18:05 253 13 gusting 19 16.7
2014-Apr-20 18:00 278 13 gusting 19 16.7
2014-Apr-20 17:55 302 13 gusting 18 16.7
2014-Apr-20 17:50 288 11 gusting 19 16.7
2014-Apr-20 17:45 276 9 gusting 19 16.7
2014-Apr-20 17:40 270 14 gusting 20 17.2
2014-Apr-20 17:35 274 13 gusting 20 16.7
2014-Apr-20 17:30 277 14 gusting 20 17.2
2014-Apr-20 17:25 268 9 gusting 19 16.7
2014-Apr-20 17:20 268 15 gusting 18 16.7
2014-Apr-20 17:15 284 11 gusting 19 17.2
2014-Apr-20 17:10 291 8 gusting 19 17.2
2014-Apr-20 17:05 258 14 gusting 19 17.8
2014-Apr-20 17:00 253 5 gusting 20 17.2
2014-Apr-20 16:55 264 9 gusting 20 17.2
2014-Apr-20 16:50 252 13 gusting 18 17.2
2014-Apr-20 16:45 258 7 gusting 18 17.8
2014-Apr-20 16:40 250 9 gusting 18 17.8
2014-Apr-20 16:35 253 13 gusting 18 17.2
2014-Apr-20 16:30 282 6 gusting 23 17.2
2014-Apr-20 16:25 280 14 gusting 23 17.2
2014-Apr-20 16:20 280 10 gusting 20 17.2
2014-Apr-20 16:15 299 11 gusting 20 17.2
2014-Apr-20 16:10 285 16 gusting 19 16.7
2014-Apr-20 16:05 283 11 gusting 19 16.1
2014-Apr-20 16:00 296 11 gusting 19 16.1
2014-Apr-20 15:55 285 13 gusting 19 16.7
2014-Apr-20 15:50 268 9 gusting 18 16.7
2014-Apr-20 15:45 264 13 gusting 19 16.7
2014-Apr-20 15:40 290 13 gusting 19 16.7
2014-Apr-20 15:35 277 14 gusting 19 16.7
2014-Apr-20 15:30 262 13 gusting 19 16.7
2014-Apr-20 15:25 293 18 gusting 21 17.2
2014-Apr-20 15:20 316 13 gusting 21 17.2
2014-Apr-20 15:15 302 17 gusting 22 17.2
2014-Apr-20 15:10 271 13 gusting 22 17.2
2014-Apr-20 15:05 265 15 gusting 23 17.2
2014-Apr-20 15:00 264 13 gusting 23 17.2
2014-Apr-20 14:55 277 14 gusting 19 17.2
2014-Apr-20 14:50 302 8 gusting 21 16.7
2014-Apr-20 14:45 308 15 gusting 21 16.7
2014-Apr-20 14:35 262 11 gusting 19 17.2
2014-Apr-20 14:30 284 13 gusting 23 17.2
2014-Apr-20 14:25 275 16 gusting 23 16.7
2014-Apr-20 14:20 280 13 gusting 19 17.2
2014-Apr-20 14:10 284 7 gusting 22 16.7
2014-Apr-20 14:05 291 14 gusting 22 16.7
2014-Apr-20 13:55 255 13 gusting 19 16.7
2014-Apr-20 13:50 254 14 gusting 19 17.2
2014-Apr-20 13:45 262 8 gusting 19 16.7
2014-Apr-20 13:35 250 9 gusting 19 16.7
2014-Apr-20 13:25 239 13 gusting 21 16.7
2014-Apr-20 13:20 272 8 gusting 21 16.1
2014-Apr-20 13:15 268 12 gusting 20 16.1
2014-Apr-20 13:10 250 13 gusting 20 16.7
2014-Apr-20 12:55 270 12 gusting 19 15.6
2014-Apr-20 12:50 265 15 gusting 19 15.6
2014-Apr-20 12:35 238 4 gusting 17 15.6
2014-Apr-20 12:30 256 7 gusting 17 15.6
2014-Apr-20 12:25 292 9 gusting 19 15.0
2014-Apr-20 12:15 259 9 gusting 18 15.0
2014-Apr-20 12:00 258 13 gusting 19 15.0
2014-Apr-20 11:50 268 9 gusting 18 14.4
2014-Apr-20 11:45 250 11 gusting 17 15.0
2014-Apr-20 11:40 251 4 gusting 18 14.4
2014-Apr-20 11:25 252 7 gusting 19 14.4
2014-Apr-20 11:20 266 12 gusting 19 14.4
2014-Apr-20 11:15 260 18 gusting 19 14.4
2014-Apr-20 11:10 238 13 gusting 19 14.4
2014-Apr-20 11:05 239 9 gusting 19 14.4
2014-Apr-20 11:00 259 13 gusting 17 14.4
2014-Apr-20 10:55 291 13 gusting 19 13.9
2014-Apr-20 10:50 282 14 gusting 19 13.9
2014-Apr-20 10:45 261 12 gusting 19 13.3
2014-Apr-20 10:30 261 13 gusting 17 13.3
2014-Apr-20 10:25 259 10 gusting 18 13.3
2014-Apr-20 10:20 242 13 gusting 19 13.3
2014-Apr-20 10:15 247 14 gusting 19 13.3
2014-Apr-20 10:10 249 13 gusting 19 13.3
2014-Apr-20 10:05 253 12 gusting 19 13.3
2014-Apr-20 09:50 225 7 gusting 17 12.8
2014-Apr-20 09:45 242 11 gusting 15 12.8
2014-Apr-20 09:40 253 6 gusting 13 12.8
2014-Apr-20 09:35 261 6 gusting 15 12.2
2014-Apr-20 09:30 262 9 gusting 16 12.2
2014-Apr-20 09:25 282 6 gusting 16 12.2
2014-Apr-20 09:20 305 13 gusting 15 12.8
2014-Apr-20 09:10 262 3 gusting 16 12.2
2014-Apr-20 09:00 281 11 gusting 16 12.2
2014-Apr-20 08:55 280 6 gusting 14 11.7
2014-Apr-20 08:50 268 10 gusting 13 12.2
2014-Apr-20 08:45 255 6 gusting 14 12.2
2014-Apr-20 08:40 248 8 gusting 14 11.7
2014-Apr-20 08:30 243 7 gusting 13 11.7
2014-Apr-20 08:20 262 10 gusting 14 11.1
2014-Apr-20 08:05 290 6 gusting 14 11.1
2014-Apr-20 08:00 297 6 gusting 14 11.1
2014-Apr-20 07:55 276 6 gusting 14 11.1
2014-Apr-20 07:50 280 9 gusting 14 10.6
2014-Apr-20 07:45 300 6 gusting 15 10.0
2014-Apr-20 07:35 279 10 gusting 19 10.0
2014-Apr-20 07:25 296 11 gusting 20 9.4
2014-Apr-20 07:15 284 10 gusting 16 9.4
2014-Apr-20 07:05 298 6 gusting 17 9.4
2014-Apr-20 07:00 290 8 gusting 16 9.4
2014-Apr-20 06:55 277 9 gusting 16 9.4
2014-Apr-20 06:50 297 9 gusting 13 9.4
2014-Apr-20 06:45 308 6 gusting 13 9.4
2014-Apr-20 06:40 300 7 gusting 13 9.4
2014-Apr-20 06:35 291 5 gusting 13 9.4
2014-Apr-20 06:30 284 9 gusting 13 9.4
2014-Apr-20 06:25 288 5 gusting 13 9.4
2014-Apr-20 06:20 282 4 gusting 13 9.4
2014-Apr-20 06:15 296 9 gusting 14 8.9
2014-Apr-20 06:10 309 7 gusting 17 9.4
2014-Apr-20 06:05 299 9 gusting 17 8.9
2014-Apr-20 06:00 290 10 gusting 15 8.9
2014-Apr-20 05:55 279 9 gusting 14 8.9
2014-Apr-20 05:50 276 3 gusting 15 8.9
2014-Apr-20 05:45 285 8 gusting 16 8.9
2014-Apr-20 05:40 291 6 gusting 16 8.9
2014-Apr-20 05:35 298 6 gusting 19 8.9
2014-Apr-20 05:30 293 11 gusting 19 8.9
2014-Apr-20 05:25 280 12 gusting 20 8.9
2014-Apr-20 05:20 288 13 gusting 20 8.9
2014-Apr-20 05:15 295 13 gusting 20 8.9
2014-Apr-20 05:10 278 11 gusting 19 8.9
2014-Apr-20 05:05 268 10 gusting 19 8.9
2014-Apr-20 05:00 278 14 gusting 19 8.9
2014-Apr-20 04:55 282 13 gusting 23 8.9
2014-Apr-20 04:50 287 14 gusting 25 8.9
2014-Apr-20 04:45 297 19 gusting 25 8.9
2014-Apr-20 04:40 287 12 gusting 19 9.4
2014-Apr-20 04:35 283 13 gusting 19 9.4
2014-Apr-20 04:30 290 10 gusting 22 9.4
2014-Apr-20 04:25 288 13 gusting 22 9.4
2014-Apr-20 04:20 275 13 gusting 19 9.4
2014-Apr-20 04:15 271 14 gusting 17 9.4
2014-Apr-20 04:10 270 13 gusting 17 9.4
2014-Apr-20 04:05 272 9 gusting 18 9.4
2014-Apr-20 04:00 295 11 gusting 26 9.4
2014-Apr-20 03:55 303 9 gusting 26 9.4
2014-Apr-20 03:50 290 13 gusting 19 9.4
2014-Apr-20 03:45 272 10 gusting 19 10.0
2014-Apr-20 03:40 267 13 gusting 19 10.0
2014-Apr-20 03:35 248 9 gusting 19 10.0
2014-Apr-20 03:30 250 14 gusting 19 10.0
2014-Apr-20 03:25 266 3 gusting 13 10.0
2014-Apr-20 03:20 257 6 gusting 14 10.0
2014-Apr-20 03:15 282 5 gusting 19 10.0
2014-Apr-20 03:10 300 9 gusting 22 10.0
2014-Apr-20 03:05 293 14 gusting 22 10.0
2014-Apr-20 03:00 298 6 gusting 19 10.0
2014-Apr-20 02:55 300 13 gusting 19 10.0
2014-Apr-20 02:50 275 7 gusting 20 10.0
2014-Apr-20 02:45 259 13 gusting 20 10.0
2014-Apr-20 02:40 262 9 gusting 18 10.0
2014-Apr-20 02:35 284 7 gusting 22 10.0
2014-Apr-20 02:30 278 12 gusting 22 10.0
2014-Apr-20 02:25 287 14 gusting 24 10.0
2014-Apr-20 02:20 296 14 gusting 24 10.0
2014-Apr-20 02:15 294 14 gusting 23 10.0
2014-Apr-20 02:10 270 9 gusting 22 10.0
2014-Apr-20 02:05 248 10 gusting 23 10.0
2014-Apr-20 02:00 267 14 gusting 23 10.0
2014-Apr-20 01:55 273 10 gusting 23 10.0
2014-Apr-20 01:50 245 9 gusting 19 10.0
2014-Apr-20 01:45 236 13 gusting 20 10.0
2014-Apr-20 01:40 258 14 gusting 20 10.0
2014-Apr-20 01:35 273 13 gusting 20 10.6
2014-Apr-20 01:30 253 14 gusting 18 10.6
2014-Apr-20 01:25 274 7 gusting 19 10.6
2014-Apr-20 01:20 299 13 gusting 19 10.6
2014-Apr-20 01:15 299 13 gusting 19 11.1
2014-Apr-20 01:10 295 13 gusting 19 11.1
2014-Apr-20 01:05 302 11 gusting 20 11.1
2014-Apr-20 01:00 294 12 gusting 24 11.1
2014-Apr-20 00:55 272 15 gusting 24 11.1
2014-Apr-20 00:50 280 12 gusting 21 11.1
2014-Apr-20 00:45 282 13 gusting 22 11.1
2014-Apr-20 00:40 276 12 gusting 22 11.1
2014-Apr-20 00:35 270 6 gusting 22 11.1
2014-Apr-20 00:30 280 16 gusting 22 11.1
2014-Apr-20 00:25 263 7 gusting 18 11.1
2014-Apr-20 00:20 243 8 gusting 18 11.7
2014-Apr-20 00:15 272 9 gusting 23 11.7
2014-Apr-20 00:10 267 9 gusting 23 11.7
2014-Apr-20 00:05 265 9 gusting 26 11.7
2014-Apr-20 00:00 283 12 gusting 26 11.7
2014-Apr-19 23:55 280 20 gusting 26 11.7
2014-Apr-19 23:50 257 17 gusting 28 11.7
2014-Apr-19 23:45 254 22 gusting 28 12.2
2014-Apr-19 23:40 251 16 gusting 30 12.2
2014-Apr-19 23:35 262 19 gusting 30 12.2
2014-Apr-19 23:30 269 19 gusting 29 12.2
2014-Apr-19 23:25 253 19 gusting 27 12.2
2014-Apr-19 23:20 278 19 gusting 29 12.2
2014-Apr-19 23:15 282 14 gusting 29 12.2
2014-Apr-19 23:10 276 19 gusting 26 12.8
2014-Apr-19 23:05 298 9 gusting 32 12.8
2014-Apr-19 23:00 283 19 gusting 32 12.8
2014-Apr-19 22:55 271 13 gusting 26 13.3
2014-Apr-19 22:50 265 15 gusting 29 13.3
2014-Apr-19 22:45 279 15 gusting 29 13.3
2014-Apr-19 22:40 313 14 gusting 23 13.3
2014-Apr-19 22:35 296 15 gusting 26 13.3
2014-Apr-19 22:30 295 14 gusting 26 13.3
2014-Apr-19 22:25 293 13 gusting 29 13.3
2014-Apr-19 22:20 271 19 gusting 29 13.3
2014-Apr-19 22:15 279 12 gusting 26 13.3
2014-Apr-19 22:10 276 17 gusting 26 13.9
2014-Apr-19 22:05 278 15 gusting 32 13.9
2014-Apr-19 22:00 286 15 gusting 32 13.9
2014-Apr-19 21:55 289 14 gusting 24 14.4
2014-Apr-19 21:50 286 13 gusting 21 14.4
2014-Apr-19 21:45 285 9 gusting 24 14.4
2014-Apr-19 21:40 292 13 gusting 24 14.4
2014-Apr-19 21:35 308 10 gusting 26 14.4
2014-Apr-19 21:30 288 13 gusting 26 14.4
2014-Apr-19 21:25 282 13 gusting 26 14.4
2014-Apr-19 21:20 303 14 gusting 26 14.4
2014-Apr-19 21:15 292 19 gusting 26 14.4
2014-Apr-19 21:10 278 13 gusting 23 14.4
2014-Apr-19 21:05 281 15 gusting 24 14.4
2014-Apr-19 21:00 287 17 gusting 24 14.4
2014-Apr-19 20:55 293 10 gusting 18 14.4
2014-Apr-19 20:50 304 11 gusting 20 14.4
2014-Apr-19 20:45 298 13 gusting 20 15.0
2014-Apr-19 20:40 292 12 gusting 26 15.0
2014-Apr-19 20:35 283 13 gusting 26 15.0
2014-Apr-19 20:30 275 13 gusting 23 15.6
2014-Apr-19 20:25 288 11 gusting 18 15.6
2014-Apr-19 20:20 293 11 gusting 18 15.6
2014-Apr-19 20:15 267 13 gusting 19 15.6
2014-Apr-19 20:10 258 13 gusting 19 15.6
2014-Apr-19 20:05 272 9 gusting 17 15.6
2014-Apr-19 20:00 285 9 gusting 17 15.6
2014-Apr-19 19:55 302 10 gusting 16 15.6
2014-Apr-19 19:50 286 6 gusting 19 15.6
2014-Apr-19 19:45 268 7 gusting 23 15.6
2014-Apr-19 19:40 266 14 gusting 23 16.1
2014-Apr-19 19:35 287 8 gusting 19 16.1
2014-Apr-19 19:30 307 8 gusting 22 16.1
2014-Apr-19 19:25 303 14 gusting 23 16.1
2014-Apr-19 19:20 290 13 gusting 23 16.1
2014-Apr-19 19:15 284 17 gusting 23 16.1
2014-Apr-19 19:10 271 13 gusting 17 16.7
2014-Apr-19 19:05 280 10 gusting 18 16.7
2014-Apr-19 19:00 303 9 gusting 18 16.7
2014-Apr-19 18:55 304 8 gusting 18 16.7
2014-Apr-19 18:50 290 6 gusting 18 16.7
2014-Apr-19 18:45 293 9 gusting 20 16.7
2014-Apr-19 18:40 276 9 gusting 22 16.7
2014-Apr-19 18:35 282 9 gusting 22 16.7
2014-Apr-19 18:30 300 15 gusting 22 17.2
2014-Apr-19 18:25 300 13 gusting 22 17.2
2014-Apr-19 18:20 286 15 gusting 19 17.2
2014-Apr-19 18:15 274 9 gusting 18 17.8
2014-Apr-19 18:10 290 10 gusting 18 17.8
2014-Apr-19 18:05 296 15 gusting 18 17.8
2014-Apr-19 18:00 290 14 gusting 19 17.8
2014-Apr-19 17:55 281 10 gusting 26 17.2
2014-Apr-19 17:50 284 11 gusting 26 17.2
2014-Apr-19 17:45 262 14 gusting 19 17.8
2014-Apr-19 17:40 256 13 gusting 21 17.8
2014-Apr-19 17:35 280 15 gusting 25 17.8
2014-Apr-19 17:30 281 16 gusting 25 17.8
2014-Apr-19 17:25 262 16 gusting 25 17.8
2014-Apr-19 17:20 275 15 gusting 24 17.8
2014-Apr-19 17:15 277 8 gusting 24 17.8
2014-Apr-19 17:10 272 19 gusting 26 18.3
2014-Apr-19 17:05 287 13 gusting 26 18.3
2014-Apr-19 17:00 286 17 gusting 26 18.3
2014-Apr-19 16:55 269 9 gusting 26 18.9
2014-Apr-19 16:50 256 14 gusting 26 18.9
2014-Apr-19 16:45 265 13 gusting 25 19.4
2014-Apr-19 16:40 273 14 gusting 25 19.4
2014-Apr-19 16:35 275 19 gusting 23 19.4
2014-Apr-19 16:30 264 17 gusting 23 20.0
2014-Apr-19 16:25 271 15 gusting 23 19.4
2014-Apr-19 16:20 268 18 gusting 23 19.4
2014-Apr-19 16:15 252 16 gusting 26 19.4
2014-Apr-19 16:10 293 17 gusting 26 19.4
2014-Apr-19 16:05 305 14 gusting 26 19.4
2014-Apr-19 16:00 283 16 gusting 27 19.4
2014-Apr-19 15:55 252 14 gusting 27 19.4
2014-Apr-19 15:50 246 21 gusting 27 19.4
2014-Apr-19 15:45 270 19 gusting 26 20.0
2014-Apr-19 15:40 290 14 gusting 23 20.0
2014-Apr-19 15:35 278 8 gusting 23 20.0
2014-Apr-19 15:30 254 14 gusting 20 20.6
2014-Apr-19 15:25 257 13 gusting 19 20.6
2014-Apr-19 15:20 275 14 gusting 19 20.6
2014-Apr-19 15:15 269 14 gusting 24 20.6
2014-Apr-19 15:10 238 14 gusting 24 20.6
2014-Apr-19 15:05 267 13 gusting 23 21.1
2014-Apr-19 15:00 304 17 gusting 22 21.1
2014-Apr-19 14:55 297 18 gusting 23 21.1
2014-Apr-19 14:50 289 13 gusting 26 20.6
2014-Apr-19 14:45 284 14 gusting 26 21.1
2014-Apr-19 14:40 294 15 gusting 24 21.1
2014-Apr-19 14:35 272 13 gusting 26 21.1
2014-Apr-19 14:30 250 18 gusting 26 21.1
2014-Apr-19 14:25 269 17 gusting 22 21.1
2014-Apr-19 14:20 298 15 gusting 22 21.1
2014-Apr-19 14:15 279 10 gusting 21 21.7
2014-Apr-19 14:10 251 17 gusting 19 21.7
2014-Apr-19 14:05 255 13 gusting 19 21.7
2014-Apr-19 14:00 262 13 gusting 19 21.7
2014-Apr-19 13:55 295 10 gusting 18 22.2
2014-Apr-19 13:50 299 11 gusting 22 22.2
2014-Apr-19 13:45 280 12 gusting 22 21.7
2014-Apr-19 13:40 265 19 gusting 22 21.7
2014-Apr-19 13:35 249 13 gusting 18 22.2
2014-Apr-19 13:30 273 13 gusting 18 21.7
2014-Apr-19 13:25 300 9 gusting 16 21.7
2014-Apr-19 13:20 291 8 gusting 18 21.7
2014-Apr-19 13:15 281 12 gusting 18 21.1
2014-Apr-19 13:10 270 11 gusting 16 21.1
2014-Apr-19 13:05 247 10 gusting 20 21.7
2014-Apr-19 13:00 258 13 gusting 20 21.1
2014-Apr-19 12:55 270 10 gusting 19 21.1
2014-Apr-19 12:50 270 15 gusting 19 21.1
2014-Apr-19 12:45 283 6 gusting 16 21.1
2014-Apr-19 12:40 290 12 gusting 18 21.1
2014-Apr-19 12:35 294 12 gusting 19 21.1
2014-Apr-19 12:30 286 8 gusting 20 20.6
2014-Apr-19 12:25 288 13 gusting 20 20.6
2014-Apr-19 12:20 268 12 gusting 19 21.1
2014-Apr-19 12:15 259 13 gusting 20 20.6
2014-Apr-19 12:10 270 15 gusting 20 20.6
2014-Apr-19 12:05 270 14 gusting 20 21.1
2014-Apr-19 12:00 270 14 gusting 20 21.1
2014-Apr-19 11:55 258 9 gusting 19 21.7
2014-Apr-19 11:50 272 2 gusting 16 22.2
2014-Apr-19 11:45 274 8 gusting 16 21.7
2014-Apr-19 11:40 227 8 gusting 15 21.7
2014-Apr-19 11:35 222 9 gusting 17 21.7
2014-Apr-19 11:30 237 9 gusting 17 21.1
2014-Apr-19 11:25 242 9 gusting 17 21.7
2014-Apr-19 11:20 228 12 gusting 16 21.1
2014-Apr-19 11:15 239 6 gusting 13 21.7
2014-Apr-19 11:10 245 3 gusting 13 21.1
2014-Apr-19 11:05 237 8 gusting 12 21.1
2014-Apr-19 11:00 228 8 gusting 13 21.1
2014-Apr-19 10:55 219 6 gusting 13 21.1
2014-Apr-19 10:50 231 5 gusting 13 21.7
2014-Apr-19 10:45 246 3 gusting 9 21.7
2014-Apr-19 10:40 282 2 gusting 6 21.7
2014-Apr-19 10:35 279 2 gusting 7 20.6
2014-Apr-19 10:30 278 4 gusting 7 20.6
2014-Apr-19 10:25 256 2 gusting 6 20.6
2014-Apr-19 10:20 234 6 gusting 8 20.0
2014-Apr-19 10:15 243 3 gusting 8 20.0
2014-Apr-19 10:10 247 6 gusting 8 19.4
2014-Apr-19 10:05 237 3 gusting 9 18.9
2014-Apr-19 10:00 232 3 gusting 9 18.9
2014-Apr-19 09:55 218 5 gusting 7 18.9
2014-Apr-19 09:50 189 5 gusting 7 18.9
2014-Apr-19 09:45 194 5 gusting 6 18.9
2014-Apr-19 09:40 206 1 gusting 8 18.9
2014-Apr-19 09:35 207 5 gusting 8 18.9
2014-Apr-19 09:30 221 3 gusting 8 18.9
2014-Apr-19 09:25 215 4 gusting 8 18.3
2014-Apr-19 09:20 199 1 gusting 7 18.9
2014-Apr-19 09:15 195 6 gusting 7 18.3
2014-Apr-19 09:10 170 4 gusting 6 18.3
2014-Apr-19 09:05 196 3 gusting 8 17.8
2014-Apr-19 09:00 221 5 gusting 8 17.2
2014-Apr-19 08:55 236 2 gusting 6 17.8
2014-Apr-19 08:50 238 1 gusting 6 18.3
2014-Apr-19 08:45 229 0 gusting 6 17.8
2014-Apr-19 08:40 223 1 gusting 5 18.3
2014-Apr-19 08:35 18.9
2014-Apr-19 08:30 163 0 gusting 3 18.9
2014-Apr-19 08:25 188 0 gusting 3 18.9
2014-Apr-19 08:20 197 0 gusting 3 17.8
2014-Apr-19 08:15 107 1 gusting 3 17.8
2014-Apr-19 08:10 091 2 gusting 3 16.7
2014-Apr-19 08:05 091 1 gusting 4 15.0
2014-Apr-19 08:00 099 1 gusting 5 15.0
2014-Apr-19 07:55 098 2 gusting 6 15.0
2014-Apr-19 07:50 104 3 gusting 6 15.0
2014-Apr-19 07:45 104 3 gusting 6 14.4
2014-Apr-19 07:40 095 1 gusting 5 15.0
2014-Apr-19 07:35 111 3 gusting 5 15.6
2014-Apr-19 07:30 116 1 gusting 3 16.1
2014-Apr-19 07:25 109 0 gusting 3 16.1
2014-Apr-19 07:20 151 2 gusting 3 16.7
2014-Apr-19 07:15 204 0 gusting 3 16.7
2014-Apr-19 07:10 16.7
2014-Apr-19 07:05 134 1 gusting 1 17.8
2014-Apr-19 07:00 17.2
2014-Apr-19 06:55 16.1
2014-Apr-19 06:50 15.0
2014-Apr-19 06:45 13.9
2014-Apr-19 06:40 072 0 gusting 2 12.8
2014-Apr-19 06:35 092 0 gusting 1 12.2
2014-Apr-19 06:30 100 0 gusting 1 11.7
2014-Apr-19 06:25 11.7
2014-Apr-19 06:20 12.2
2014-Apr-19 06:15 11.7
2014-Apr-19 06:10 11.7
2014-Apr-19 06:05 12.2
2014-Apr-19 06:00 12.2
2014-Apr-19 05:55 12.2
2014-Apr-19 05:50 11.7
2014-Apr-19 05:45 11.7
2014-Apr-19 05:40 183 0 gusting 1 11.1
2014-Apr-19 05:35 11.1
2014-Apr-19 05:30 11.7
2014-Apr-19 05:25 11.7
2014-Apr-19 05:20 100 1 gusting 2 11.7
2014-Apr-19 05:15 102 0 gusting 1 11.7
2014-Apr-19 05:10 11.7
2014-Apr-19 05:05 134 0 gusting 1 11.7
2014-Apr-19 05:00 181 0 gusting 1 11.1
2014-Apr-19 04:55 11.7
2014-Apr-19 04:50 202 0 gusting 3 11.7
2014-Apr-19 04:45 228 1 gusting 4 11.1
2014-Apr-19 04:40 226 1 gusting 4 11.1
2014-Apr-19 04:35 219 2 gusting 3 11.7
2014-Apr-19 04:30 11.7
2014-Apr-19 04:25 11.7
2014-Apr-19 04:20 11.7
2014-Apr-19 04:15 12.2
2014-Apr-19 04:10 12.2
2014-Apr-19 04:05 12.8
2014-Apr-19 04:00 12.8